Location: Emporia
(38.4040°N, 96.1810°W)
Time: 23:21:56
(UTC-05:00)

Amateur Radio Satellites - All Passes

Search period start: 04 August 2015 22:51
Search period end: 05 August 2015 22:51
Location: Emporia, 38.4040°N, 96.1810°W

Satellite Date Start Highest point End Downlink Frequencies (MHz)
Time Altitude Azimuth
Cosmos 2491 04 Aug 22:52:54 23:00:23 32° 70° (ENE) 23:08:04 435.465 / 435.565
HUMSAT D 04 Aug 23:00:17 23:04:25 72° 77° (ENE) 23:08:38 437.325/437.525
AAUSAT CUBESAT 2 04 Aug 23:02:58 23:04:22 11° 271° (W) 23:05:30 437.432
FUNcube-1 04 Aug 23:07:52 23:11:46 36° 263° (W) 23:15:45 145.935
ESTCUBE 1 04 Aug 23:12:00 23:15:47 27° 70° (ENE) 23:19:38 437.505/2401.250
YUBILEINY 04 Aug 23:13:52 23:18:52 18° 80° (E) 23:24:23 435.215
Oscar 11 04 Aug 23:14:25 23:17:36 19° 268° (W) 23:20:41 145.826/435.025
UKube-1 04 Aug 23:14:42 23:18:58 66° 75° (ENE) 23:23:16 .
50 SAT 04 Aug 23:17:52 23:21:37 50° 74° (ENE) 23:25:27 437.505
UWE-3 04 Aug 23:22:25 23:25:31 19° 268° (W) 23:28:33 435.000/436.395/437.385
TIGRISAT 04 Aug 23:24:57 23:29:11 32° 96° (E) 23:33:25 435.000
ANTELSAT 04 Aug 23:28:30 23:32:52 37° 97° (E) 23:37:14 437.575/2403.000
POLYITAN 1 04 Aug 23:28:39 23:30:20 12° 90° (E) 23:32:17 437.675
AIST 1 04 Aug 23:30:33 23:34:48 73° 81° (E) 23:39:03
M-CUBED/EXP-1 PRIME 04 Aug 23:30:48 23:35:36 74° 289° (WNW) 23:40:10 437.505
BEESAT 2 04 Aug 23:40:01 23:44:06 66° 302° (WNW) 23:48:13 435.950
AISAT 04 Aug 23:41:47 23:46:11 87° 77° (ENE) 23:50:36 437.250
POPSAT HIP 1 04 Aug 23:42:58 23:45:51 18° 93° (E) 23:48:52 437.405
CUBEBUG 1 04 Aug 23:43:01 23:47:11 47° 74° (ENE) 23:51:22 437.445
DX 1 04 Aug 23:49:33 23:53:41 43° 261° (W) 23:57:51 434.975-435.025
QB50P2 04 Aug 23:51:20 23:54:44 23° 94° (E) 23:58:14 145.880/145.840
AUBIESAT-1 04 Aug 23:56:17 00:00:49 46° 292° (WNW) 00:05:07 437.475
TISAT 1 05 Aug 00:00:26 00:02:08 13° 66° (ENE) 00:04:02 437.305
PHONESAT 2.4 05 Aug 00:02:54 00:06:17 45° 204° (SSW) 00:09:38 2401.200-2431.200
AIST 2 05 Aug 00:03:09 00:07:10 45° 116° (ESE) 00:11:16 435.215
SPROUT 05 Aug 00:03:36 00:06:55 23° 69° (ENE) 00:10:19 437.525
DUCHIFAT 1 05 Aug 00:10:38 00:14:33 36° 97° (E) 00:18:30 145.980
BEESAT 3 05 Aug 00:14:46 00:18:06 23° 311° (NW) 00:21:24 437.485
NANOSAT C BR1 05 Aug 00:16:34 00:20:38 43° 99° (E) 00:24:43 145.865
QB50P1 05 Aug 00:17:05 00:21:11 45° 99° (E) 00:25:17 145.935-145.965
UNISAT 6 05 Aug 00:19:42 00:24:22 62° 285° (WNW) 00:29:01 437.425
VELOX 1 05 Aug 00:19:56 00:24:01 36° 263° (W) 00:28:04 145.980
RS-15 05 Aug 00:48:29 00:56:59 23° 335° (NNW) 01:05:30 29.354- 29.394
ESTCUBE 1 05 Aug 00:48:45 00:52:36 26° 265° (W) 00:56:22 437.505/2401.250
Cosmos 2491 05 Aug 00:49:17 00:57:39 52° 269° (W) 01:05:56 435.465 / 435.565
50 SAT 05 Aug 00:55:45 00:56:34 10° 271° (W) 00:57:08 437.505
ISS 05 Aug 00:57:09 00:58:08 11° 14° (NNE) 00:59:09 145.825
BEESAT 05 Aug 00:59:04 01:00:00 11° 63° (ENE) 01:01:13 436.000
BUGSAT 1 05 Aug 00:59:05 01:03:12 86° 101° (E) 01:07:21 437.445
TIGRISAT 05 Aug 01:01:57 01:05:46 24° 291° (WNW) 01:09:28 435.000
POLYITAN 1 05 Aug 01:02:25 01:06:36 51° 286° (WNW) 01:10:46 437.675
ANTELSAT 05 Aug 01:05:47 01:09:25 22° 292° (WNW) 01:12:55 437.575/2403.000
YUBILEINY 05 Aug 01:05:58 01:14:42 85° 278° (W) 01:23:31 435.215
O/OREOS (USA 219) 05 Aug 01:06:44 01:10:59 45° 107° (ESE) 01:15:19 437.305
SWISSCUBE 05 Aug 01:17:46 01:21:00 19° 67° (ENE) 01:24:24 437.505
POPSAT HIP 1 05 Aug 01:17:56 01:21:51 35° 288° (WNW) 01:25:43 437.405
CUBEBUG 1 05 Aug 01:21:32 01:23:51 14° 269° (W) 01:25:57 437.445
QB50P2 05 Aug 01:26:58 01:30:37 27° 289° (WNW) 01:34:12 145.880/145.840
TISAT 1 05 Aug 01:33:25 01:37:30 52° 260° (W) 01:41:36 437.305
SPROUT 05 Aug 01:39:10 01:42:52 28° 265° (W) 01:46:32 437.525
ITUPSAT 1 05 Aug 01:39:58 01:44:00 28° 69° (ENE) 01:48:09 437.325
AIST 2 05 Aug 01:42:53 01:45:59 19° 314° (NW) 01:49:00 435.215
DUCHIFAT 1 05 Aug 01:47:09 01:50:07 18° 292° (WNW) 01:52:57 145.980
NANOSAT C BR1 05 Aug 01:53:34 01:56:08 15° 293° (WNW) 01:58:34 145.865
QB50P1 05 Aug 01:54:12 01:56:42 15° 293° (WNW) 01:59:03 145.935-145.965
KKS-1 05 Aug 02:18:55 02:19:50 11° 64° (ENE) 02:21:02 437.445
ISS 05 Aug 02:32:12 02:35:18 39° 33° (NNE) 02:38:23 145.825
BEESAT 05 Aug 02:32:26 02:37:15 82° 259° (WSW) 02:42:04 436.000
JUGNU 05 Aug 02:33:21 02:33:59 10° 171° (S) 02:34:42 437.505
ITAMSAT 1 05 Aug 02:37:50 02:39:43 12° 88° (E) 02:41:56 435.822/435.867
Gurwin Techsat 1B 05 Aug 02:39:49 02:42:53 16° 90° (E) 02:46:13 435.225
Oscar 19 05 Aug 02:44:00 02:49:09 62° 100° (E) 02:54:18 437.125/150
O/OREOS (USA 219) 05 Aug 02:47:42 02:50:43 17° 304° (NW) 02:53:36 437.305
SWISSCUBE 05 Aug 02:53:58 02:58:34 44° 261° (W) 03:03:09 437.505
Cosmos 2504 05 Aug 03:05:54 03:13:00 74° 94° (E) 03:20:43 435.465 / 435.565
YUBILEINY 05 Aug 03:07:52 03:13:09 16° 300° (WNW) 03:17:54 435.215
RS-15 05 Aug 03:08:09 03:15:17 18° 11° (N) 03:22:49 29.354- 29.394
JAS-2 05 Aug 03:08:41 03:13:27 18° 86° (E) 03:18:33 435.910
STARS 05 Aug 03:14:38 03:18:12 26° 70° (ENE) 03:21:52 437.465
ITUPSAT 1 05 Aug 03:17:40 03:21:51 29° 264° (W) 03:25:59 437.325
MOZHAYETS 4 05 Aug 03:41:19 03:41:41 10° 64° (ENE) 03:42:20
KKS-1 05 Aug 03:51:33 03:55:57 70° 258° (WSW) 04:00:23 437.445
ISS 05 Aug 04:09:07 04:11:33 19° 229° (SW) 04:13:55 145.825
ITAMSAT 1 05 Aug 04:14:41 04:19:51 71° 286° (WNW) 04:24:59 435.822/435.867
Gurwin Techsat 1B 05 Aug 04:18:07 04:23:20 58° 287° (WNW) 04:28:31 435.225
JUGNU 05 Aug 04:19:52 04:22:09 12° 182° (S) 04:24:24 437.505
Oscar 19 05 Aug 04:24:52 04:28:03 16° 296° (WNW) 04:31:01 437.125/150
SRMSAT 05 Aug 04:33:00 04:34:06 11° 173° (S) 04:35:15 437.500
CUSAT 1 05 Aug 04:45:03 04:47:44 53° 280° (W) 04:50:17 437.405
STARS 05 Aug 04:50:55 04:54:36 25° 265° (W) 04:58:13 437.465
HORYU 2 05 Aug 04:51:18 04:55:27 36° 98° (E) 04:59:36 437.375
JAS-2 05 Aug 04:51:33 04:59:29 86° 285° (WNW) 05:07:05 435.910
AO-7 05 Aug 04:51:55 04:59:42 43° 99° (E) 05:07:31 29.400- 29.500
DANDE 05 Aug 04:56:24 04:59:27 76° 279° (W) 05:02:06 436.750
Cosmos 2504 05 Aug 05:01:07 05:06:16 19° 296° (WNW) 05:11:18 435.465 / 435.565
MOZHAYETS 4 05 Aug 05:13:39 05:18:18 81° 258° (WSW) 05:22:59
RS-15 05 Aug 05:21:33 05:32:19 41° 43° (NE) 05:43:38 29.354- 29.394
CUBESAT XI-V 05 Aug 05:44:45 05:47:49 18° 68° (ENE) 05:51:02 437.345
GONETS M04 05 Aug 05:48:55 05:56:53 43° 89° (E) 06:04:57
SRMSAT 05 Aug 06:20:16 06:22:24 12° 183° (S) 06:24:31 437.500
STRAND 1 05 Aug 06:24:16 06:27:16 16° 64° (ENE) 06:30:29 437.568
Cosmos 2499 05 Aug 06:26:24 06:29:23 13° 78° (ENE) 06:33:02 435.465 / 435.565
HORYU 2 05 Aug 06:28:30 06:31:52 20° 292° (WNW) 06:35:06 437.375
PRISM 05 Aug 06:32:23 06:33:45 12° 65° (ENE) 06:35:20 437.425
JAS-2 05 Aug 06:38:25 06:43:31 18° 301° (WNW) 06:48:12 435.910
AO-7 05 Aug 06:44:48 06:52:29 41° 297° (WNW) 07:00:00 29.400- 29.500
BEESAT 3 05 Aug 06:57:05 06:59:16 14° 44° (NE) 07:01:34 437.485
Cubesat XI-IV 05 Aug 07:00:17 07:04:47 28° 95° (E) 07:09:21 437.490
CUBESAT XI-V 05 Aug 07:20:30 07:24:58 43° 262° (W) 07:29:25 437.345
PCSat 05 Aug 07:33:53 07:36:30 14° 105° (ESE) 07:39:24 145.827
RS-15 05 Aug 07:33:54 07:45:37 66° 245° (WSW) 07:57:37 29.354- 29.394
GONETS M04 05 Aug 07:45:48 07:53:50 39° 288° (WNW) 08:01:45
CUTE-I 05 Aug 07:54:13 07:59:33 89° 291° (WNW) 08:04:53 437.470
BRITE-PL 05 Aug 07:58:19 08:00:24 13° 91° (E) 08:02:49 437.365/2234.400
BEESAT 2 05 Aug 08:00:30 08:04:24 44° 55° (NE) 08:08:16 435.950
STRAND 1 05 Aug 08:00:58 08:06:02 60° 259° (W) 08:11:08 437.568
SO-50 05 Aug 08:01:58 08:05:29 22° 111° (ESE) 08:09:14 436.795
PRISM 05 Aug 08:04:38 08:08:45 57° 260° (W) 08:12:53 437.425
Cosmos 2499 05 Aug 08:13:50 08:21:17 86° 96° (E) 08:29:26 435.465 / 435.565
AIST 2 05 Aug 08:26:40 08:29:50 21° 47° (NE) 08:33:02 435.215
BEESAT 3 05 Aug 08:33:38 08:37:36 57° 242° (WSW) 08:41:29 437.485
Cubesat XI-IV 05 Aug 08:40:08 08:44:55 34° 291° (WNW) 08:49:37 437.490
M-CUBED/EXP-1 PRIME 05 Aug 08:45:37 08:46:59 12° 58° (ENE) 08:48:35 437.505
DOVE 4 05 Aug 08:49:16 08:52:24 18° 92° (E) 08:55:49 437.250
CUTE 1.7 + AOD 2 05 Aug 09:05:19 09:08:05 17° 91° (E) 09:10:58 437.475
AUBIESAT-1 05 Aug 09:08:51 09:11:37 18° 61° (ENE) 09:14:39 437.475
CANX-2 05 Aug 09:13:54 09:17:22 24° 94° (E) 09:20:52 2200.000
PCSat 05 Aug 09:13:59 09:19:22 70° 299° (WNW) 09:24:49 145.827
HO-68 05 Aug 09:19:25 09:25:51 35° 96° (E) 09:32:21 435.675
GOMX 1 05 Aug 09:21:57 09:26:36 63° 100° (E) 09:31:36 467.674
BRITE-PL 05 Aug 09:34:48 09:39:15 56° 285° (WNW) 09:44:02 437.365/2234.400
CUTE-I 05 Aug 09:37:18 09:38:57 11° 299° (WNW) 09:40:16 437.470
BEESAT 2 05 Aug 09:39:48 09:42:06 14° 250° (WSW) 09:44:14 435.950
SO-50 05 Aug 09:41:15 09:45:47 42° 308° (NW) 09:50:26 436.795
RS-15 05 Aug 09:51:34 09:56:23 12° 261° (W) 09:59:55 29.354- 29.394
CINEMA 3 05 Aug 10:01:06 10:05:41 44° 98° (E) 10:10:26 145.822/145.860
CUBEBUG 2 05 Aug 10:01:47 10:05:13 20° 92° (E) 10:08:49 437.445
AIST 2 05 Aug 10:04:40 10:08:32 37° 245° (WSW) 10:12:19 435.215
COMPASS 1 05 Aug 10:06:40 10:10:49 54° 99° (E) 10:14:55 437.405
Cosmos 2499 05 Aug 10:10:56 10:15:51 17° 299° (WNW) 10:20:33 435.465 / 435.565
M-CUBED/EXP-1 PRIME 05 Aug 10:16:59 10:21:06 72° 254° (WSW) 10:25:35 437.505
TIGRISAT 05 Aug 10:22:48 10:26:13 23° 69° (ENE) 10:29:49 435.000
DOVE 4 05 Aug 10:25:48 10:30:22 47° 286° (WNW) 10:35:09 437.250
ANTELSAT 05 Aug 10:26:25 10:30:03 26° 70° (ENE) 10:33:51 437.575/2403.000
SEEDS 05 Aug 10:29:28 10:33:42 61° 284° (WNW) 10:37:51 437.485
POPSAT HIP 1 05 Aug 10:35:59 10:37:24 12° 66° (ENE) 10:39:03 437.405
ZACube-1 05 Aug 10:37:52 10:41:49 29° 95° (E) 10:45:50 437.345
CUTE 1.7 + AOD 2 05 Aug 10:40:11 10:44:10 37° 287° (WNW) 10:48:05 437.475
AUBIESAT-1 05 Aug 10:41:59 10:45:57 43° 258° (WSW) 10:50:13 437.475
QB50P2 05 Aug 10:43:52 10:46:15 15° 67° (ENE) 10:48:48 145.880/145.840
AAUSAT CUBESAT 2 05 Aug 10:43:57 10:48:07 63° 285° (WNW) 10:52:13 437.432
HUMSAT D 05 Aug 10:47:19 10:49:25 14° 90° (E) 10:51:43 437.325/437.525
CANX-2 05 Aug 10:49:37 10:53:15 26° 289° (WNW) 10:56:48 2200.000
FUNcube-1 05 Aug 10:57:04 11:01:28 45° 98° (E) 11:05:53 145.935
Oscar 11 05 Aug 11:01:41 11:06:05 86° 102° (ESE) 11:10:25 145.826/435.025
PCSat 05 Aug 11:01:50 11:03:54 12° 320° (NW) 11:05:44 145.827
GOMX 1 05 Aug 11:01:58 11:04:24 14° 293° (WNW) 11:06:39 467.674
DUCHIFAT 1 05 Aug 11:02:01 11:05:13 22° 70° (ENE) 11:08:32 145.980
UKube-1 05 Aug 11:05:41 11:07:16 12° 90° (E) 11:09:07 .
HO-68 05 Aug 11:06:58 11:13:40 42° 293° (WNW) 11:20:16 435.675
NANOSAT C BR1 05 Aug 11:07:56 11:11:26 27° 70° (ENE) 11:15:00 145.865
QB50P1 05 Aug 11:08:38 11:12:11 28° 71° (ENE) 11:15:48 145.935-145.965
UWE-3 05 Aug 11:11:52 11:16:33 90° 323° (NW) 11:21:15 435.000/436.395/437.385
UNISAT 6 05 Aug 11:16:57 11:21:20 84° 257° (WSW) 11:25:51 437.425
O/OREOS (USA 219) 05 Aug 11:17:54 11:22:29 70° 68° (ENE) 11:27:03 437.305
YUBILEINY 05 Aug 11:18:13 11:26:33 45° 74° (ENE) 11:34:57 435.215
DELFI C3 05 Aug 11:32:07 11:36:07 60° 285° (WNW) 11:40:04 145.870
AISAT 05 Aug 11:34:50 11:37:50 18° 93° (E) 11:40:59 437.250
CUBEBUG 2 05 Aug 11:37:40 11:42:02 38° 287° (WNW) 11:46:24 437.445
CINEMA 3 05 Aug 11:39:08 11:42:37 20° 292° (WNW) 11:46:01 145.822/145.860
DX 1 05 Aug 11:39:18 11:43:13 33° 97° (E) 11:47:11 434.975-435.025
COMPASS 1 05 Aug 11:44:14 11:46:03 12° 294° (WNW) 11:47:39 437.405
BUGSAT 1 05 Aug 11:47:39 11:51:30 46° 74° (ENE) 11:55:23 437.445
Cosmos 2491 05 Aug 11:52:13 12:00:01 39° 88° (E) 12:07:56 435.465 / 435.565
POLYITAN 1 05 Aug 11:53:32 11:57:43 84° 257° (WSW) 12:01:58 437.675
AIST 1 05 Aug 11:58:16 12:02:24 46° 93° (E) 12:06:33
TIGRISAT 05 Aug 11:59:01 12:02:51 29° 265° (W) 12:06:44 435.000
ANTELSAT 05 Aug 12:03:06 12:06:47 26° 266° (W) 12:10:30 437.575/2403.000
POPSAT HIP 1 05 Aug 12:08:43 12:12:50 56° 260° (W) 12:17:00 437.405
VELOX 1 05 Aug 12:11:25 12:15:40 45° 99° (E) 12:19:55 145.980
ZACube-1 05 Aug 12:14:15 12:18:05 26° 290° (WNW) 12:21:49 437.345
QB50P2 05 Aug 12:17:49 12:21:49 42° 262° (W) 12:25:50 145.880/145.840
HUMSAT D 05 Aug 12:21:17 12:25:28 47° 286° (WNW) 12:29:37 437.325/437.525
50 SAT 05 Aug 12:28:49 12:32:49 84° 283° (WNW) 12:36:46 437.505
FUNcube-1 05 Aug 12:34:26 12:37:27 17° 293° (WNW) 12:40:18 145.935
DUCHIFAT 1 05 Aug 12:37:19 12:40:55 27° 265° (W) 12:44:29 145.980
UKube-1 05 Aug 12:39:34 12:43:48 53° 286° (WNW) 12:47:59 .
ESTCUBE 1 05 Aug 12:42:00 12:46:29 72° 101° (ESE) 12:50:56 437.505/2401.250
NANOSAT C BR1 05 Aug 12:43:53 12:47:15 23° 266° (W) 12:50:32 145.865
QB50P1 05 Aug 12:44:45 12:48:03 22° 266° (W) 12:51:17 145.935-145.965
Cosmos 2504 05 Aug 12:54:07 13:00:27 24° 66° (ENE) 13:07:12 435.465 / 435.565
CUBEBUG 1 05 Aug 13:09:14 13:13:32 67° 285° (WNW) 13:17:51 437.445
AISAT 05 Aug 13:10:29 13:14:34 37° 288° (WNW) 13:18:37 437.250
YUBILEINY 05 Aug 13:15:20 13:23:16 37° 273° (W) 13:31:00 435.215
DX 1 05 Aug 13:16:03 13:19:17 20° 292° (WNW) 13:22:24 434.975-435.025
TISAT 1 05 Aug 13:19:34 13:23:04 26° 95° (E) 13:26:39 437.305
BUGSAT 1 05 Aug 13:25:37 13:27:17 12° 270° (W) 13:28:44 437.445
SPROUT 05 Aug 13:26:28 13:30:42 54° 100° (E) 13:34:56 437.525
AIST 1 05 Aug 13:38:08 13:40:23 13° 290° (WNW) 13:42:26
Cosmos 2491 05 Aug 13:48:34 13:56:49 43° 286° (WNW) 14:04:58 435.465 / 435.565
VELOX 1 05 Aug 13:49:08 13:51:53 16° 293° (WNW) 13:54:28 145.980
ITAMSAT 1 05 Aug 13:53:51 13:57:13 18° 65° (ENE) 14:00:45 435.822/435.867
Gurwin Techsat 1B 05 Aug 13:59:13 14:03:15 23° 67° (ENE) 14:07:26 435.225
Oscar 19 05 Aug 13:59:19 14:04:25 76° 75° (ENE) 14:09:34 437.125/150
AO-7 05 Aug 14:04:35 14:05:52 11° 47° (NE) 14:07:44 29.400- 29.500
ESTCUBE 1 05 Aug 14:21:38 14:22:49 11° 296° (WNW) 14:23:44 437.505/2401.250
BEESAT 05 Aug 14:34:39 14:38:43 28° 95° (E) 14:42:51 436.000
Cosmos 2504 05 Aug 14:45:02 14:53:33 73° 266° (W) 15:02:06 435.465 / 435.565
TISAT 1 05 Aug 14:55:19 14:58:46 24° 290° (WNW) 15:02:09 437.305
SWISSCUBE 05 Aug 14:55:34 15:00:13 52° 99° (E) 15:04:51 437.505
JAS-2 05 Aug 15:01:59 15:07:40 37° 66° (ENE) 15:14:06 435.910
SPROUT 05 Aug 15:04:18 15:06:22 13° 294° (WNW) 15:08:13 437.525
CUSAT 1 05 Aug 15:18:22 15:23:07 70° 80° (E) 15:29:29 437.405
ITUPSAT 1 05 Aug 15:18:54 15:23:43 82° 103° (ESE) 15:28:28 437.325
ITAMSAT 1 05 Aug 15:31:14 15:36:20 54° 260° (W) 15:41:27 435.822/435.867
DANDE 05 Aug 15:33:38 15:37:55 61° 81° (E) 15:43:43 436.750
Gurwin Techsat 1B 05 Aug 15:37:58 15:43:00 42° 262° (W) 15:48:02 435.225
Oscar 19 05 Aug 15:42:53 15:44:29 11° 273° (W) 15:45:42 437.125/150
KKS-1 05 Aug 15:44:35 15:48:13 25° 95° (E) 15:51:56 437.445
HORYU 2 05 Aug 15:48:17 15:52:03 28° 70° (ENE) 15:55:55 437.375
AO-7 05 Aug 15:49:00 15:56:58 52° 66° (ENE) 16:05:01 29.400- 29.500
GONETS M04 05 Aug 16:01:43 16:07:21 19° 63° (ENE) 16:13:26
BEESAT 05 Aug 16:12:26 16:16:31 28° 291° (WNW) 16:20:30 436.000
PCSat 05 Aug 16:22:40 16:24:11 11° 39° (NE) 16:25:58 145.827
SO-50 05 Aug 16:34:33 16:37:45 17° 42° (NE) 16:41:04 436.795
SWISSCUBE 05 Aug 16:34:42 16:37:41 16° 295° (WNW) 16:40:28 437.505
STARS 05 Aug 16:41:04 16:45:28 63° 101° (ESE) 16:49:52 437.465
Cosmos 2504 05 Aug 16:41:07 16:44:33 12° 282° (WNW) 16:47:18 435.465 / 435.565
JAS-2 05 Aug 16:46:59 16:52:43 37° 267° (W) 16:59:04 435.910
VERMONT LUNAR 05 Aug 16:48:43 16:51:43 41° 155° (SSE) 16:54:43 437.305
ITUPSAT 1 05 Aug 16:59:56 17:01:00 10° 298° (WNW) 17:01:46 437.325
CUSAT 1 05 Aug 17:03:06 17:05:41 13° 267° (W) 17:08:09 437.405
MOZHAYETS 4 05 Aug 17:10:51 17:14:42 26° 94° (E) 17:18:36
DANDE 05 Aug 17:18:58 17:21:05 12° 266° (W) 17:23:04 436.750
KKS-1 05 Aug 17:21:00 17:24:50 28° 290° (WNW) 17:28:37 437.445
HORYU 2 05 Aug 17:24:59 17:28:40 25° 265° (W) 17:32:19 437.375
CUTE-I 05 Aug 17:37:13 17:40:20 16° 64° (ENE) 17:43:41 437.470
AO-7 05 Aug 17:42:36 17:50:03 34° 264° (W) 17:57:21 29.400- 29.500
GONETS M04 05 Aug 17:56:43 18:05:28 84° 265° (W) 18:14:15
PCSat 05 Aug 18:03:21 18:08:47 67° 61° (ENE) 18:14:09 145.827
Cosmos 2499 05 Aug 18:06:36 18:14:06 31° 69° (ENE) 18:21:47 435.465 / 435.565
SO-50 05 Aug 18:13:56 18:18:53 71° 241° (WSW) 18:23:40 436.795
STARS 05 Aug 18:19:38 18:21:26 12° 295° (WNW) 18:23:02 437.465
Cubesat XI-IV 05 Aug 18:20:40 18:25:39 41° 71° (ENE) 18:30:40 437.490
PHONESAT 2.4 05 Aug 18:24:21 18:27:31 32° 152° (SSE) 18:30:42 2401.200-2431.200
VERMONT LUNAR 05 Aug 18:25:11 18:28:21 64° 352° (N) 18:31:30 437.305
MOZHAYETS 4 05 Aug 18:47:57 18:51:53 28° 290° (WNW) 18:55:44
BRITE-PL 05 Aug 19:09:35 19:10:53 11° 67° (ENE) 19:12:25 437.365/2234.400
ISS 05 Aug 19:10:43 19:13:26 25° 133° (SE) 19:16:13 145.825
CUTE-I 05 Aug 19:14:38 19:19:57 64° 259° (W) 19:25:17 437.470
CUBESAT XI-V 05 Aug 19:18:27 19:22:56 51° 99° (E) 19:27:24 437.345
RS-15 05 Aug 19:47:05 19:54:27 23° 103° (ESE) 20:02:33 29.354- 29.394
HO-68 05 Aug 19:47:34 19:52:50 24° 61° (ENE) 19:58:20 435.675
PCSat 05 Aug 19:48:33 19:51:41 15° 255° (WSW) 19:54:31 145.827
PRISM 05 Aug 19:49:01 19:52:04 20° 94° (E) 19:55:11 437.425
DOVE 4 05 Aug 19:55:29 19:57:07 12° 66° (ENE) 19:58:57 437.250
GONETS M04 05 Aug 19:56:39 20:01:11 15° 281° (W) 20:05:06
CUTE 1.7 + AOD 2 05 Aug 19:58:38 19:59:42 11° 65° (ENE) 20:01:02 437.475
Cosmos 2499 05 Aug 19:59:08 20:07:46 58° 268° (W) 20:16:17 435.465 / 435.565
Cubesat XI-IV 05 Aug 20:01:36 20:05:55 24° 267° (W) 20:10:06 437.490
PHONESAT 2.4 05 Aug 20:01:49 20:05:20 76° 348° (NNW) 20:08:51 2401.200-2431.200
VERMONT LUNAR 05 Aug 20:02:04 20:05:13 64° 8° (N) 20:08:22 437.305
CANX-2 05 Aug 20:06:22 20:08:48 15° 67° (ENE) 20:11:25 2200.000
STRAND 1 05 Aug 20:13:00 20:17:59 52° 100° (E) 20:22:56 437.568
GOMX 1 05 Aug 20:29:25 20:33:29 52° 75° (ENE) 20:37:32 467.674
BRITE-PL 05 Aug 20:44:52 20:49:06 54° 260° (W) 20:53:11 437.365/2234.400
ISS 05 Aug 20:46:51 20:49:48 31° 329° (NNW) 20:52:46 145.825
COMPASS 1 05 Aug 20:56:26 21:00:07 30° 72° (ENE) 21:03:53 437.405
CUBESAT XI-V 05 Aug 20:57:16 21:00:00 15° 294° (WNW) 21:02:32 437.345
CUBEBUG 2 05 Aug 21:00:11 21:02:07 13° 66° (ENE) 21:04:18 437.445
CINEMA 3 05 Aug 21:02:08 21:05:45 30° 71° (ENE) 21:09:31 145.822/145.860
SEEDS 05 Aug 21:19:30 21:23:45 75° 75° (ENE) 21:28:01 437.485
PRISM 05 Aug 21:23:59 21:27:32 28° 289° (WNW) 21:31:00 437.425
DOVE 4 05 Aug 21:30:29 21:34:30 49° 261° (W) 21:38:34 437.250
CUTE 1.7 + AOD 2 05 Aug 21:30:53 21:35:08 64° 260° (W) 21:39:24 437.475
AAUSAT CUBESAT 2 05 Aug 21:32:42 21:36:52 69° 76° (ENE) 21:41:05 437.432
HO-68 05 Aug 21:32:58 21:40:03 66° 257° (WSW) 21:47:11 435.675
ZACube-1 05 Aug 21:33:16 21:36:09 18° 68° (ENE) 21:39:12 437.345
VERMONT LUNAR 05 Aug 21:38:50 21:41:52 41° 204° (SSW) 21:44:51 437.305
PHONESAT 2.4 05 Aug 21:39:58 21:43:28 62° 5° (N) 21:46:57 2401.200-2431.200
CANX-2 05 Aug 21:40:18 21:44:24 44° 262° (W) 21:48:31 2200.000
FUNcube-1 05 Aug 21:51:44 21:55:20 28° 70° (ENE) 21:59:04 145.935
STRAND 1 05 Aug 21:53:21 21:56:49 18° 295° (WNW) 22:00:05 437.568
RS-15 05 Aug 21:54:40 22:05:36 84° 301° (WNW) 22:16:58 29.354- 29.394
Oscar 11 05 Aug 21:54:45 21:58:58 53° 74° (ENE) 22:03:14 145.826/435.025
BEESAT 2 05 Aug 21:54:52 21:56:18 12° 109° (ESE) 21:57:56 435.950
M-CUBED/EXP-1 PRIME 05 Aug 22:02:07 22:03:19 11° 92° (E) 22:04:50 437.505
Cosmos 2491 05 Aug 22:05:19 22:10:19 17° 61° (ENE) 22:15:51 435.465 / 435.565
UWE-3 05 Aug 22:07:33 22:11:41 59° 75° (ENE) 22:15:58 435.000/436.395/437.385
GOMX 1 05 Aug 22:11:04 22:12:05 11° 271° (W) 22:12:49 467.674
DELFI C3 05 Aug 22:17:15 22:21:16 64° 76° (ENE) 22:25:19 145.870
BEESAT 3 05 Aug 22:24:34 22:28:14 34° 115° (ESE) 22:31:59 437.485
AUBIESAT-1 05 Aug 22:24:49 22:27:48 17° 95° (E) 22:30:52 437.475
ISS 05 Aug 22:26:52 22:27:03 10° 348° (NNW) 22:27:12 145.825
AISAT 05 Aug 22:32:06 22:34:25 15° 66° (ENE) 22:36:56 437.250
COMPASS 1 05 Aug 22:32:39 22:35:51 20° 267° (W) 22:38:56 437.405
DX 1 05 Aug 22:33:48 22:37:18 25° 69° (ENE) 22:40:52 434.975-435.025
CUBEBUG 2 05 Aug 22:34:17 22:38:23 50° 261° (W) 22:42:37 437.445
CINEMA 3 05 Aug 22:39:57 22:43:04 20° 268° (W) 22:46:07 145.822/145.860
